Showing default

ESSA 5, 2757

Orbit data source: Space-Track

ESSA 5, 2757 is a payload satellite owned by ESSA (US) in SSO that was launched on Thu, 20 Apr 1967 UTC via a THOR DELTA E launch vehicle from the Air Force Western Test Range (AFWTR). Payload-class satellites include a variety of spacecraft equipped with specific instruments for various scientific and technological missions. These include communications satellites like Starlink; space stations such as the ISS; scientific satellites like the Hubble; Earth observation satellites from companies like Planet Labs, Umbra, and HawkEye 360; GPS; miniature CubeSats for education and research; and military/defense satellites.

Loading next visibility...
Identifier
2757, 1967-036A
Orbit
SSO
Country
Flag of USUS
Related business
Manufacturer
RCA/East Windsor
Mission
Non-operational spacecraft
Bus & Motor
TIROS I, Unknown motor
Mass
147 kg wet, 147 kg dry
Launch date (UTC)
1967-04-20 (59 years ago)
Launch vehicle
THOR DELTA E
Launch site
Air Force Western Test Range (AFWTR)
Object type
Payload
Rocket body
Debris
Shape & HBR
Unknown
Radar Cross Section
Medium (>0.1 m² and <1 m²)

Expand to show TLE details & history
Last TLE update: 13 hours ago

TLE from 13 hours ago
0 ESSA 5
1  2757U 67036A   25306.42884012 -.00000034  00000-0  74755-4 0  9998
2  2757 101.9767 115.3598 0042696 337.4859  77.6301 12.68538659710221
Epoch: 2025-11-02T10:17Z
TLE epoch observation values (Epoch: 2025-11-02T10:17:31.786Z)
Latitude
53.90921°
Longitude
-97.79906°
Altitude
1,389.573 km
Speed
7.173 km/s
True Right ascension
06h 34m 06s
True Declination
53° 45' 31"
Sunlit
Object was in daylight at epoch
Visualization orbit readout
Latitude
Unknown
Longitude
Unknown
Altitude
Unknown
Speed
Unknown
Apparent Right ascension
Unknown
Apparent Declination
Unknown
Sunlit
N/A
Visualization observer readout
Local Sidereal Time
19:21:05
Azimuth
Unknown
Elevation
Unknown
Doppler factor
Unknown
Orbital elements
Apogee altitude
1,418.582 km
Perigee altitude
1,352.287 km
Semi-major axis
7,763.572 km
Eccentricity
0.00427
Inclination
101.9767°
RAAN
115.3598°
Arg. of periapsis
337.4859°
True anomaly
78.10854°
Mean anomaly
77.6301°
Eccentric anomaly
77.86927°
Mean motion
3.17286 °/min
Orbital period
113.46 mins
BSTAR
0.000074755
Loading maneuver chart data...
Computing Atmospheric mass density...
Loading historical data...
Loading historical data...
Loading historical data...
Loading historical data...
Loading historical data...
Loading historical data...
Loading historical data...
Other satellites on launch #36 in the year 1967 (1967-04-20 UTC)

Documentation

Showing up to 5 results
|